KF7HDR Weather Reports


time (UTC)temp
C
wind
direction
speed
KPH
gust
KPH
rain 1hr
cm
rain 24hr
cm
rain mn
cm
humidity
%
barometer
mb
20260505152610 11 174 1.6 4.8 0.00 0.00 0.00 88 1018.0
20260505151608 11 185 1.6 4.8 0.00 0.00 0.00 89 1018.0
20260505150607 11 150 3.2 6.4 0.00 0.00 0.00 89 1018.0
20260505140559 11 211 1.6 6.4 0.00 0.00 0.00 91 1017.4
20260505124549 11 269 1.6 4.8 0.00 0.00 0.00 89 1016.9
20260505123548 11 59 1.6 8.0 0.00 0.00 0.00 89 1016.9
20260505122547 11 164 1.6 6.4 0.00 0.00 0.00 89 1016.9
20260505121545 11 286 6.4 9.7 0.00 0.00 0.00 89 1016.9
20260505120544 11 66 3.2 8.0 0.00 0.00 0.00 89 1016.9
20260505115543 11 266 3.2 8.0 0.00 0.00 0.00 89 1016.9
20260505114602 11 106 3.2 9.7 0.00 0.00 0.00 88 1016.8
20260505113600 11 16 1.6 6.4 0.00 0.00 0.00 88 1016.8
20260505112539 11 115 3.2 4.8 0.00 0.00 0.00 88 1017.0
20260505111538 11 236 1.6 4.8 0.00 0.00 0.00 88 1016.9
20260505110536 11 313 3.2 8.0 0.00 0.00 0.00 88 1016.7
20260505101529 11 0.0 0.0 0.00 0.00 0.00 87 1016.3
20260505100528 11 0.0 0.0 0.00 0.00 0.00 87 1016.4
20260505095527 11 284 0.0 3.2 0.00 0.00 0.00 86 1016.4
20260505094525 11 0.0 0.0 0.00 0.00 0.00 86 1016.4
20260505093544 11 0.0 0.0 0.00 0.00 0.00 86 1016.3
20260505092523 11 0.0 1.6 0.00 0.00 0.00 86 1016.2
20260505091522 11 0.0 1.6 0.00 0.00 0.00 86 1016.0
20260505090540 11 0.0 1.6 0.00 0.00 0.00 86 1016.0
20260505085519 12 0.0 3.2 0.00 0.00 0.00 85 1015.9
20260505084518 12 225 0.0 3.2 0.00 0.00 0.00 84 1015.9
20260505083517 12 209 0.0 3.2 0.00 0.00 0.00 84 1016.0
20260505082516 12 0.0 1.6 0.00 0.00 0.00 84 1015.8
20260505081614 12 0.0 0.0 0.00 0.00 0.00 84 1015.8
20260505080632 12 0.0 0.0 0.00 0.00 0.00 84 1015.7
20260505075611 12 253 0.0 3.2 0.00 0.00 0.00 84 1015.7
20260505074610 12 197 0.0 3.2 0.00 0.00 0.00 84 1015.5
20260505073608 12 0.0 1.6 0.00 0.00 0.00 84 1015.5
20260505072628 12 264 0.0 1.6 0.00 0.00 0.00 84 1015.4
20260505071627 12 0.0 1.6 0.00 0.00 0.00 84 1015.2
20260505070624 12 0.0 1.6 0.00 0.00 0.00 84 1015.2
20260505065604 13 0.0 3.2 0.00 0.00 0.00 83 1015.1
20260505064602 13 0.0 0.0 0.00 0.00 0.00 83 1014.9
20260505063601 13 0.0 0.0 0.00 0.00 0.00 82 1014.8
20260505062620 13 0.0 0.0 0.00 0.00 0.00 82 1014.7
20260505061558 14 0.0 1.6 0.00 0.00 0.00 81 1014.5
20260505060557 14 179 1.6 4.8 0.00 0.00 0.00 80 1014.6
20260505055556 15 0.0 3.2 0.00 0.00 0.00 79 1014.5
20260505054614 15 0.0 3.2 0.00 0.00 0.00 79 1014.5
20260505053553 15 149 0.0 1.6 0.00 0.00 0.00 78 1014.4
20260505052552 15 155 0.0 1.6 0.00 0.00 0.00 78 1014.2
20260505051610 16 0.0 0.0 0.00 0.00 0.00 77 1014.2
20260505050549 16 0.0 0.0 0.00 0.00 0.00 75 1014.2
20260505041543 17 0.0 3.2 0.00 0.00 0.00 70 1013.5
20260505040542 18 79 0.0 3.2 0.00 0.00 0.00 69 1013.5
20260505035601 18 0.0 4.8 0.00 0.00 0.00 68 1013.3
20260505034539 18 132 0.0 3.2 0.00 0.00 0.00 68 1013.2
20260505033538 19 180 1.6 6.4 0.00 0.00 0.00 68 1012.9
20260505032536 19 204 1.6 4.8 0.00 0.00 0.00 68 1012.8
20260505031556 20 120 1.6 4.8 0.00 0.00 0.00 69 1012.7
20260505030534 20 118 0.0 4.8 0.00 0.00 0.00 68 1012.6
20260505025532 21 93 1.6 6.4 0.00 0.00 0.00 67 1012.5
20260505024531 21 141 1.6 3.2 0.00 0.00 0.00 66 1012.4
20260505023550 21 248 1.6 3.2 0.00 0.00 0.00 65 1012.4
20260505022528 21 143 1.6 3.2 0.00 0.00 0.00 64 1012.3
20260505021527 22 169 1.6 3.2 0.00 0.00 0.00 63 1012.3
20260505020526 22 142 1.6 4.8 0.00 0.00 0.00 63 1012.3
20260505015545 22 167 1.6 8.0 0.00 0.00 0.00 62 1012.3
20260505014524 22 149 3.2 4.8 0.00 0.00 0.00 62 1012.3
20260505013542 22 145 1.6 4.8 0.00 0.00 0.00 61 1012.3
20260505012541 22 155 3.2 6.4 0.00 0.00 0.00 61 1012.4
20260505011520 23 169 3.2 6.4 0.00 0.00 0.00 60 1012.4
20260505010518 23 126 1.6 4.8 0.00 0.00 0.00 60 1012.5
20260505005517 23 188 3.2 6.4 0.00 0.00 0.00 58 1012.6
20260505004515 23 230 3.2 3.2 0.00 0.00 0.00 57 1012.7
20260505003635 24 192 3.2 4.8 0.00 0.00 0.00 55 1012.5
20260505002613 23 139 1.6 3.2 0.00 0.00 0.00 56 1012.7
20260505001612 24 313 1.6 3.2 0.00 0.00 0.00 55 1012.6
20260505000611 23 159 4.8 6.4 0.00 0.00 0.00 56 1012.8
20260504235609 23 225 1.6 6.4 0.00 0.00 0.00 56 1012.9
20260504234628 23 209 3.2 8.0 0.00 0.00 0.00 56 1012.8
20260504233627 23 206 3.2 4.8 0.00 0.00 0.00 56 1012.8
20260504232606 -17 0.0 0.0 0.00 0.00 0.00 1013.0
20260504231604 -17 0.0 0.0 0.00 0.00 0.00 1012.9
20260504230603 23 196 1.6 4.8 0.00 0.00 0.00 54 1013.2
20260504225602 23 184 3.2 4.8 0.00 0.00 0.00 55 1013.1
20260504224600 23 199 4.8 4.8 0.00 0.00 0.00 54 1013.3
20260504223600 23 197 4.8 4.8 0.00 0.00 0.00 54 1013.5
20260504222618 22 182 1.6 6.4 0.00 0.00 0.00 56 1013.5
20260504221557 22 173 6.4 6.4 0.00 0.00 0.00 56 1013.7
20260504220555 22 173 1.6 6.4 0.00 0.00 0.00 56 1013.8
20260504215554 22 0.0 4.8 0.00 0.00 0.00 56 1013.9
20260504214553 22 277 1.6 4.8 0.00 0.00 0.00 57 1013.9
20260504213552 21 171 3.2 4.8 0.00 0.00 0.00 59 1014.1
20260504212551 -17 0.0 0.0 0.00 0.00 0.00 1014.3
20260504211550 -17 0.0 0.0 0.00 0.00 0.00 1014.4
20260504210548 20 191 1.6 3.2 0.00 0.00 0.00 60 1014.6
20260504205547 20 191 1.6 3.2 0.00 0.00 0.00 60 1014.8
20260504204546 19 100 3.2 3.2 0.00 0.00 0.00 65 1014.8
20260504203544 18 104 3.2 3.2 0.00 0.00 0.00 65 1015.0
20260504202603 18 164 4.8 4.8 0.00 0.00 0.00 65 1015.0
20260504201542 18 129 1.6 4.8 0.00 0.00 0.00 65 1015.0
20260504200600 18 131 3.2 6.4 0.00 0.00 0.00 67 1015.3
20260504195539 17 63 0.0 4.8 0.00 0.00 0.00 67 1015.3
20260504194618 17 0.0 4.8 0.00 0.00 0.00 68 1015.3
20260504193537 17 0.0 1.6 0.00 0.00 0.00 70 1015.4
20260504192535 16 112 3.2 8.0 0.00 0.00 0.00 71 1015.4
20260504191534 15 139 1.6 4.8 0.00 0.00 0.00 75 1015.4
20260504185532 14 171 1.6 4.8 0.00 0.00 0.00 77 1015.6
20260504184530 14 117 1.6 4.8 0.00 0.00 0.00 78 1015.8
20260504183529 13 160 1.6 4.8 0.00 0.00 0.00 78 1015.7
20260504182528 14 162 1.6 4.8 0.00 0.00 0.00 79 1015.6
20260504181527 13 111 1.6 4.8 0.00 0.00 0.00 79 1015.6
20260504180525 13 169 1.6 6.4 0.00 0.00 0.00 80 1015.7
20260504175545 13 122 0.0 3.2 0.00 0.00 0.00 81 1015.6
20260504174523 13 155 1.6 4.8 0.00 0.00 0.00 81 1015.7
20260504173522 13 177 1.6 3.2 0.00 0.00 0.00 81 1015.6
20260504172522 13 198 1.6 4.8 0.00 0.00 0.00 82 1015.5
20260504171519 12 172 1.6 4.8 0.00 0.00 0.00 83 1015.5
20260504170518 12 139 0.0 4.8 0.00 0.00 0.00 83 1015.6